Location: Clyde
(45.1830°S, 169.3170°E)
Time: 06:24:08
(UTC+12:00)

Cosmos 883 Rocket - Pass Details

Date: 14 May 2021
Orbit: 950 x 995 km, 83.0° (Epoch: 19 June)

Event Time Altitude Azimuth Distance (km) Brightness Sun altitude
Rises 19:47:28 0° 187° (S) 3,673 7.6 -25.1°
Reaches altitude 10° 19:50:01 10° 184° (S) 2,725 6.8 -25.5°
Maximum altitude 19:56:14 68° 100° (E) 1,049 4.3 -26.6°
Enters shadow 19:56:23 67° 91° (E) 1,051 4.3 -26.6°
